Weather in Marmara

Turkey     40°35′25″N   27°33′48″E
temp.,
°C
wind,
m/s
gust,
m/s
humid.,
%
clouds,
%
prec.,
mm/h
press.,
hPa
HPBL,
m
19 january, wed
wed1900:00+6nnw11125559 0.1 10281606
03:00+4n1112614 0.1 10291069
06:00+4nne1114550 0.0 10301775
09:00+4nnw79575 0.0 10321441
12:00+3n78555 0.0 10331446
15:00+4nne45435 0.0 10321647
18:00+5n35395 0.0 10311575
21:00+5sse01365 0.0 1030905
20 january, thu
thu2000:00+4ssw54515 0.0 1031554
03:00+4ssw55510 0.0 1029503
06:00+4s56515 0.0 1027402
09:00+4s78535 0.0 1026376
12:00+6s89486 0.0 1026521
15:00+9ssw79535 0.0 10221109
18:00+9ssw58586 0.0 1021730
21:00+8s776195 0.0 1020216
21 january, fri
fri2100:00+7s7763100 0.0 1020246
03:00+7s556215 0.0 1018234
06:00+6s667196 0.0 1017204
09:00+7s4473100 0.0 1017205
12:00+8s3469100 0.0 1016215
15:00+10wsw2484100 2.0 1014146
18:00+6nne111090100 8.4 1016637
21:00+5nne101097100 11.5 1019645
22 january, sat
sat2200:00+3nne101097100 1.6 1020633
03:00+2nne101097100 2.6 1019808
06:00+2nne111197100 6.3 1019761
09:00+1nne111196100 8.7 1020782
12:00+3nne91060100 0.6 10201088
15:00+3ne8862100 0.7 10171086
18:00+2ne9981100 0.4 10171050
21:00+2nne111288100 1.8 1017991
23 january, sun
sun2300:00+2nne121285100 0.9 10161090
03:00+2nne131490100 1.7 10151089
06:00+2nne151697100 1.7 10121192
09:00+3nne161997100 5.8 10111465
12:00+3nne172296100 3.4 10101537
15:00+4nne182295100 7.9 10091593
18:00+2n202691100 3.4 10091814
21:00+2n182381100 5.1 10121764